Weather History for KIAB - September, 2013

Change the Weather History Date:

Saturday, September 21, 2013

  Actual Average Record
Temperature  
Mean Temperature 67 °F -  
Max Temperature 80 °F 77 °F - (-1)
Min Temperature 54 °F 56 °F - (-1)
Cooling Degree Days 2    
Growing Degree Days 17 (Base 50)    
Moisture  
Dew Point 55 °F    
Average Humidity 70    
Maximum Humidity 100    
Minimum Humidity 36    
Precipitation  
Precipitation 0.00 in - - ()
Sea Level Pressure  
Sea Level Pressure 29.99 in    
Wind  
Wind Speed 3 mph (SSE)    
Max Wind Speed 9 mph    
Max Gust Speed -    
Averages and records for this station are not official NWS values.
T = Trace of Precipitation, MM = Missing Value Source: NWS Daily Summary

Daily Weather History Graph

Daily Weather History Graph

Search for Another Location

Airport or City:

Trip Planner

Search our weather history database for the weather conditions in past years. The results will help you decide how hot, cold, wet, or windy it might be!

Date:

Astronomy

Sep. 21, 2013 Rise Set
Actual Time 7:16 AM CDT 7:27 PM CDT
Civil Twilight 6:50 AM CDT 7:53 PM CDT
Nautical Twilight 6:19 AM CDT 8:23 PM CDT
Astronomical Twilight 5:48 AM CDT 8:54 PM CDT
Moon 8:42 PM CDT (9/21) 9:32 AM CDT (9/21)
Length of Visible Light 13h 03m
Length of Day
12h 10m
Waning Gibbous, 94% of the Moon is Illuminated
Sep 21
Waning Gibbous
Sep 26
Last Quarter
Oct 4
New
Oct 11
First Quarter
Oct 18
Full

Hourly Weather History & Observations

Time (CDT) Temp. Dew Point Humidity Pressure Visibility Wind Dir Wind Speed Gust Speed Precip Events Conditions
12:58 AM 60.4 °F 55.2 °F 83% 30.03 in - Calm Calm - N/A   Clear
1:58 AM 57.6 °F 55.8 °F 94% 30.03 in - NNE 2.3 mph - N/A   Clear
2:58 AM 57.6 °F 55.9 °F 94% 30.02 in - Calm Calm - N/A   Clear
3:58 AM 57.6 °F 55.2 °F 92% 30.01 in - Calm Calm - N/A   Clear
4:58 AM 56.5 °F 55.2 °F 96% 30.02 in - Calm Calm - N/A   Clear
5:58 AM 57.0 °F 55.2 °F 94% 30.03 in - South 2.3 mph - N/A   Clear
6:58 AM 54.5 °F 54.5 °F 100% 30.04 in - SSE 2.3 mph - N/A   Clear
7:58 AM 54.7 °F 54.7 °F 100% 30.05 in - Calm Calm - N/A   Clear
8:58 AM 60.3 °F 57.9 °F 92% 30.04 in - SE 2.3 mph - N/A   Clear
9:58 AM 65.8 °F 58.6 °F 78% 30.05 in - SSW 3.5 mph - N/A   Clear
10:58 AM 70.7 °F 54.0 °F 55% 30.04 in - SW 2.3 mph - N/A   Clear
11:58 AM 73.8 °F 52.0 °F 46% 30.04 in - Variable 3.5 mph - N/A   Clear
12:58 PM 75.9 °F 52.2 °F 43% 30.01 in - South 5.8 mph - N/A   Clear
1:58 PM 77.7 °F 54.0 °F 44% 29.99 in - SSE 8.1 mph - N/A   Clear
2:58 PM 78.8 °F 52.7 °F 40% 29.96 in - South 6.9 mph - N/A   Clear
3:58 PM 80.1 °F 52.9 °F 39% 29.94 in - SW 6.9 mph - N/A   Clear
4:58 PM 79.5 °F 50.5 °F 36% 29.92 in - SE 2.3 mph - N/A   Clear
5:58 PM 78.8 °F 52.5 °F 40% 29.91 in - SSE 5.8 mph - N/A   Clear
6:58 PM 75.0 °F 55.9 °F 51% 29.91 in - SSE 6.9 mph - N/A   Clear
7:58 PM 71.1 °F 57.6 °F 62% 29.91 in - SE 5.8 mph - N/A   Clear
8:58 PM 67.6 °F 58.5 °F 72% 29.92 in - SSE 4.6 mph - N/A   Clear
9:58 PM 66.6 °F 57.6 °F 73% 29.94 in - SE 8.1 mph - N/A   Clear
10:58 PM 64.4 °F 57.6 °F 78% 29.94 in - SE 8.1 mph - N/A   Clear
11:58 PM 63.0 °F 57.6 °F 82% 29.94 in - SE 9.2 mph - N/A   Clear